Tracking 31027 objects as of 19-Jul-2025
HD Live streaming from Space Station
objects crossing your sky now

DELTA 1 DEB

Track DELTA 1 DEB now!
10-day predictions


NORAD ID: 39096
Int'l Code: 1973-086HJ
Perigee: 1,460.1 km
Apogee: 1,584.2 km
Inclination: 101.4 °
Period: 116.3 minutes
Semi major axis: 7893 km
RCS: 0.0093 m2 (small)
Launch date: November 6, 1973
Source: United States (US)
Launch site: AIR FORCE WESTERN TEST RANGE (AFWTR)

Note: This is SATELLITE DEBRIS
Your satellite tracking list
COSMOS 1743
Track 1 satellite(s)




NASA's NSSDC Master Catalog

Two Line Element Set (TLE):
1 39096U 73086HJ  25195.50384255  .00000218  00000-0  19713-2 0  9999
2 39096 101.3727 125.0534 0078606 286.5331  72.7110 12.38027573515653
Source of the keplerian elements: AFSPC